Weather History for CYKJ - August, 2014

Change the Weather History Date:

Sunday, August 17, 2014

  Actual Average Record
Temperature  
Mean Temperature 64 °F -  
Max Temperature 72 °F 58 °F 80 °F (2003)
Min Temperature 55 °F 39 °F 32 °F (2007)
Degree Days  
Heating Degree Days 1    
Growing Degree Days 14 (Base 50)    
Moisture  
Dew Point 54 °F    
Average Humidity 61    
Maximum Humidity 88    
Minimum Humidity 28    
Precipitation  
Precipitation 0.00 in - - ()
Sea Level Pressure  
Sea Level Pressure 29.80 in    
Wind  
Wind Speed 9 mph ()    
Max Wind Speed 17 mph    
Max Gust Speed 23 mph    
Visibility 6.5 miles    
Events Rain , Thunderstorm    
Averages and records for this station are not official NWS values.
T = Trace of Precipitation, MM = Missing Value Source: Averaged Metar Reports

Daily Weather History Graph

Daily Weather History Graph

Search for Another Location

Airport or City:

Trip Planner

Search our weather history database for the weather conditions in past years. The results will help you decide how hot, cold, wet, or windy it might be!

Date:

Astronomy

Aug. 17, 2014 Rise Set
Actual Time 5:33 AM CST 8:38 PM CST
Civil Twilight 4:48 AM CST 9:23 PM CST
Nautical Twilight 3:46 AM CST 10:23 PM CST
Astronomical Twilight 2:13 AM CST 11:52 PM CST
Moon 11:28 PM CST (8/17) 2:59 PM CST (8/17)
Length of Visible Light 16h 34m
Length of Day
15h 05m
Waning Gibbous, 48% of the Moon is Illuminated
Aug 17
Waning Gibbous
Aug 25
New
Sep 2
First Quarter
Sep 8
Full
Sep 15
Last Quarter

Hourly Weather History & Observations

Time (CST) Temp. Dew Point Humidity Pressure Visibility Wind Dir Wind Speed Gust Speed Precip Events Conditions
12:00 AM 63 °F 48 °F 48% 29.92 in - West 9.2 mph - -  
12:00 AM 69.8 °F 59.0 °F 68% 29.81 in 9.0 mi SW 11.5 mph - N/A   Clear
1:00 AM 68.0 °F 59.0 °F 73% 29.79 in 9.0 mi SSW 11.5 mph - N/A   Clear
2:00 AM 68.0 °F 57.2 °F 68% 29.79 in 9.0 mi SSW 13.8 mph - N/A   Mostly Cloudy
3:00 AM 68.0 °F 57.2 °F 68% 29.78 in 9.0 mi SSW 15.0 mph - N/A   Mostly Cloudy
4:00 AM 66.2 °F 57.2 °F 73% 29.78 in 9.0 mi SW 12.7 mph - N/A   Clear
5:00 AM 64.4 °F 57.2 °F 77% 29.77 in 9.0 mi SW 12.7 mph - N/A   Clear
6:00 AM 60 °F 51 °F 63% 29.96 in - NNW 9.2 mph - -  
6:00 AM 64.4 °F 57.2 °F 77% 29.77 in 9.0 mi SW 10.4 mph - N/A   Clear
7:00 AM 64.4 °F 59.0 °F 83% 29.77 in 9.0 mi SW 9.2 mph - N/A   Clear
8:00 AM 68.0 °F 59.0 °F 73% 29.77 in 9.0 mi SW 10.4 mph - N/A   Partly Cloudy
9:00 AM 71.6 °F 60.8 °F 69% 29.77 in 6.0 mi WSW 8.1 mph - N/A   Haze
9:36 AM 73.4 °F 60.8 °F 65% 29.75 in 5.0 mi WSW 9.2 mph - N/A   Haze
10:00 AM 73.4 °F 60.8 °F 65% 29.75 in 5.0 mi West 10.4 mph - N/A   Haze
10:16 AM 73.4 °F 60.8 °F 65% 29.75 in 6.0 mi West 9.2 mph - N/A   Haze
11:18 AM 75.2 °F 60.8 °F 61% 29.77 in 7.0 mi NW 12.7 mph 20.7 mph N/A Thunderstorm Partly Cloudy
11:26 AM 75.2 °F 59.0 °F 57% 29.78 in 6.0 mi WNW 17.3 mph 23.0 mph N/A Thunderstorm Unknown
11:29 AM 73.4 °F 60.8 °F 65% 29.78 in 5.0 mi WNW 13.8 mph 23.0 mph N/A Thunderstorm Unknown
11:43 AM 71.6 °F 60.8 °F 69% 29.78 in 4.0 mi NNW 9.2 mph 19.6 mph N/A Rain , Thunderstorm Light Rain
12:00 PM 68 °F 52 °F 45% 30.01 in - NNW 12.7 mph - -  
12:00 PM 66.2 °F 62.6 °F 88% 29.78 in 3.0 mi NNW 4.6 mph - N/A Rain , Thunderstorm Light Rain
12:10 PM 66.2 °F 62.6 °F 88% 29.78 in 3.0 mi NW 4.6 mph - N/A Rain Light Rain
12:17 PM 66.2 °F 62.6 °F 88% 29.78 in 3.0 mi NNW 5.8 mph - N/A   Mostly Cloudy
12:45 PM 69.8 °F 60.8 °F 73% 29.78 in 6.0 mi WNW 6.9 mph - N/A   Haze
1:00 PM 71.6 °F 60.8 °F 69% 29.78 in 8.0 mi WNW 6.9 mph - N/A   Mostly Cloudy
2:00 PM 75.2 °F 53.6 °F 47% 29.76 in 7.0 mi NW 6.9 mph - N/A   Clear
2:36 PM 77.0 °F 46.4 °F 34% 29.76 in 5.0 mi NW 9.2 mph - N/A   Haze
2:54 PM 77.0 °F 46.4 °F 34% 29.75 in 6.0 mi NW 10.4 mph - N/A   Haze
3:00 PM 77.0 °F 46.4 °F 34% 29.75 in 6.0 mi NW 10.4 mph 17.3 mph N/A   Haze
4:00 PM 77.0 °F 42.8 °F 29% 29.76 in 6.0 mi NNW 10.4 mph - N/A   Haze
4:03 PM 77.0 °F 41.0 °F 28% 29.76 in 5.0 mi NW 11.5 mph - N/A   Haze
4:53 PM 75.2 °F 41.0 °F 29% 29.79 in 6.0 mi NNW 9.2 mph - N/A   Haze
5:00 PM 75.2 °F 41.0 °F 29% 29.80 in 6.0 mi North 9.2 mph - N/A   Haze
6:00 PM 65 °F 56 °F 65% 30.04 in - NW 8.1 mph - -  
6:00 PM 71.6 °F 44.6 °F 38% 29.81 in 6.0 mi NNW 5.8 mph - N/A   Haze
7:00 PM 71.6 °F 46.4 °F 41% 29.81 in 7.0 mi NW 5.8 mph - N/A   Clear
8:00 PM 66.2 °F 48.2 °F 52% 29.81 in 6.0 mi NW 4.6 mph - N/A   Haze
9:00 PM 60.8 °F 50.0 °F 68% 29.81 in 6.0 mi WSW 2.3 mph - N/A   Haze
10:00 PM 57.2 °F 50.0 °F 77% 29.81 in 7.0 mi WSW 2.3 mph - N/A   Clear
11:00 PM 55.4 °F 50.0 °F 82% 29.81 in 6.0 mi SW 2.3 mph - N/A   Haze